Theta_e
312 313 314 315 314 312 316 319 321 324 326 327 328 325 321 321 322 324 321 318 321 322 322 322 323 323 321 319 318 319 322 322 322 322 322 324 325 325 325 325 326 328 328 328 326 324 325 325 326 327 327 327 328 326 316 315 317 317 324 327 324 325 324 323 324 318 318 322 315 313 318 322 323 319 318 320 320 321 323 324 327 327 324 324 325 323 322 322
311 312 313 314 314 312 313 316 318 322 325 326 327 327 324 322 320 323 323 319 319 321 320 321 323 324 323 323 321 321 321 321 321 321 322 324 324 324 324 325 327 327 327 327 325 324 324 324 325 326 327 324 323 324 321 316 315 319 323 323 326 329 323 319 319 315 315 318 315 314 316 319 322 319 318 320 321 323 327 326 326 328 325 326 326 325 323 322
311 311 312 313 314 314 312 313 315 318 323 326 326 327 326 324 321 322 323 319 318 320 320 320 321 322 322 322 322 321 320 320 321 322 323 323 323 323 324 326 326 326 326 327 326 324 322 321 321 324 326 322 320 323 323 317 315 316 318 322 327 323 317 315 315 314 315 315 314 315 315 317 318 318 319 320 321 324 327 327 325 327 326 327 327 325 324 323
310 311 311 312 313 315 314 312 312 314 319 324 325 326 326 324 322 321 323 320 318 319 319 319 320 320 320 320 320 320 320 321 322 323 324 323 323 323 324 326 326 326 326 326 327 325 323 321 319 322 324 320 317 321 320 317 316 314 316 323 320 313 314 315 313 313 313 313 313 314 315 316 317 318 319 319 323 325 324 323 323 324 324 326 327 325 325 324
310 310 311 311 312 313 315 313 312 312 315 321 324 325 325 324 323 322 324 321 318 318 318 319 318 317 318 318 318 319 321 323 323 324 325 322 323 323 323 326 325 325 325 326 326 325 325 322 319 320 321 317 315 317 316 316 316 313 315 318 314 310 314 314 311 312 312 312 313 313 315 317 317 317 318 319 323 325 321 321 321 321 321 323 325 324 325 324
309 309 310 311 311 312 314 314 313 312 313 318 322 322 324 325 323 323 324 321 317 317 317 317 318 317 317 316 318 321 322 324 323 324 326 323 323 323 323 325 324 324 324 326 326 326 326 320 318 318 317 317 317 317 315 314 313 314 316 314 313 311 311 313 312 312 311 312 313 313 316 316 316 316 317 319 321 321 319 320 320 320 321 322 323 323 324 324
308 309 309 310 311 311 312 314 313 313 314 315 316 318 321 323 324 324 324 322 317 316 316 316 316 316 316 317 320 322 322 323 322 323 325 324 324 323 323 324 323 323 323 325 326 326 325 319 316 316 316 318 317 316 316 313 311 316 320 315 313 312 311 312 312 312 312 312 313 314 315 315 316 317 316 318 320 319 318 320 320 320 320 321 322 322 322 322
308 309 308 309 310 311 311 312 312 312 313 312 312 313 315 320 324 324 323 323 319 316 316 316 316 316 316 319 322 323 322 323 322 322 325 325 324 323 323 323 323 323 324 325 325 326 325 319 317 316 317 318 317 316 315 313 312 317 322 315 312 312 312 313 313 313 312 312 313 314 314 315 316 316 314 317 319 319 319 319 319 320 320 321 322 322 322 322
308 309 308 308 309 311 311 311 311 311 311 311 311 311 311 317 324 324 322 322 320 317 315 316 317 317 318 321 323 323 322 322 322 322 323 324 323 323 323 323 323 323 324 325 325 326 325 320 319 318 318 318 317 317 314 315 314 315 316 313 312 313 313 313 313 313 312 312 313 314 314 314 314 315 315 317 318 318 319 318 318 319 320 321 322 322 322 322
308 308 308 308 308 309 311 312 312 311 310 310 311 311 309 313 320 323 323 322 322 319 316 317 319 318 319 321 322 323 322 321 322 322 322 323 323 323 323 323 323 324 324 325 325 325 325 324 322 321 321 319 317 316 315 316 315 312 312 312 313 314 313 313 313 313 313 313 313 314 315 313 313 314 317 318 317 318 318 318 318 319 320 319 321 322 322 322
308 308 308 308 308 308 310 311 312 311 310 309 310 311 310 310 314 319 322 322 322 321 318 317 319 320 321 322 323 323 322 322 322 321 322 323 322 322 322 323 323 324 324 325 325 325 326 326 324 324 324 321 319 316 315 316 315 312 312 313 313 313 314 313 313 313 313 313 313 314 313 312 312 315 317 317 317 318 318 318 318 319 320 320 319 321 321 321
309 308 308 308 308 308 309 310 312 311 309 308 309 310 310 311 311 313 319 322 323 322 319 317 318 320 321 322 323 323 322 322 321 322 323 322 322 322 322 322 323 323 324 325 325 325 326 326 326 326 324 321 319 318 317 316 314 313 314 317 316 315 316 313 312 313 313 313 313 313 314 315 314 315 317 316 316 317 317 317 318 318 320 320 320 321 321 321
308 308 308 308 308 308 309 309 311 311 309 308 309 310 310 310 310 312 316 320 323 323 319 318 318 319 322 322 322 322 322 323 322 322 323 323 322 322 322 321 322 322 323 324 325 325 325 325 326 324 321 320 318 318 318 315 314 315 314 318 321 319 318 313 310 312 313 313 313 313 317 321 319 315 315 316 316 316 316 316 317 318 319 320 321 321 321 321
308 308 308 308 307 308 309 309 310 311 310 308 309 311 310 310 311 312 315 317 322 324 320 318 319 320 322 322 322 322 322 323 323 322 322 323 322 321 322 321 322 323 323 324 325 325 325 324 324 322 319 319 317 316 316 314 315 316 315 318 321 321 321 316 311 312 313 312 312 313 317 322 320 315 314 315 315 315 316 316 316 317 318 319 321 321 321 321
307 307 307 307 307 307 308 309 309 310 311 310 309 311 311 310 310 311 314 316 320 323 319 319 321 322 321 322 322 322 322 324 323 321 321 323 323 322 322 322 323 323 324 324 324 325 325 323 321 319 316 315 317 317 317 318 316 316 320 322 320 319 322 319 311 311 314 313 311 313 316 319 317 314 313 314 315 314 315 316 316 317 317 318 319 320 320 320
307 307 307 307 307 307 307 308 309 309 311 311 310 311 311 310 309 310 313 314 320 324 320 320 322 321 322 321 321 322 322 324 323 321 321 322 323 323 323 323 323 323 324 324 324 323 322 320 318 316 314 313 316 318 319 320 318 317 321 323 320 319 321 320 314 310 312 312 312 312 315 319 316 311 312 313 313 313 315 316 316 316 317 317 318 319 319 320
306 306 306 306 306 306 306 307 308 309 310 311 311 312 312 311 309 310 311 312 319 324 321 321 321 321 322 321 320 321 322 323 323 322 321 321 322 323 324 323 322 323 323 322 321 319 318 316 315 314 313 313 315 319 323 322 320 318 317 317 319 319 318 318 317 311 309 312 314 313 313 318 318 311 311 312 311 312 314 316 316 316 316 316 317 318 318 319
306 306 306 306 306 305 305 306 307 308 309 310 311 312 312 312 312 310 310 311 316 322 323 321 321 322 322 320 319 321 321 322 323 322 322 321 321 322 324 323 322 322 319 316 315 315 314 313 313 314 312 313 314 319 326 323 321 321 317 315 316 316 316 316 316 312 310 312 314 315 314 316 319 313 311 312 311 312 312 314 316 316 316 316 316 316 317 318
305 306 306 306 306 305 305 305 305 307 308 309 310 312 312 313 313 312 311 311 312 318 324 321 321 323 323 321 320 321 321 322 322 322 322 321 321 322 323 323 320 318 314 313 313 312 312 312 313 315 313 313 314 317 324 322 321 322 317 315 316 316 316 314 314 311 310 313 313 314 315 315 318 314 311 311 311 311 312 313 315 315 316 316 316 316 316 316
305 305 305 306 306 306 305 305 305 305 306 308 309 312 314 313 313 313 311 310 309 314 320 321 322 322 322 321 320 321 321 321 322 322 322 321 321 320 320 320 316 314 313 314 313 311 312 313 313 315 314 313 314 316 320 319 318 317 314 314 315 315 315 313 313 311 309 312 314 314 313 313 315 314 311 310 310 310 310 311 313 314 315 316 316 316 315 315
305 305 306 306 306 306 305 305 305 305 305 307 309 312 315 313 312 313 311 310 309 311 314 319 323 321 321 321 320 320 320 320 321 321 321 320 320 317 314 315 313 312 313 312 311 310 312 314 314 315 315 314 315 316 317 316 315 314 313 314 313 314 315 313 312 311 309 312 316 314 312 312 313 314 311 308 309 310 310 310 312 313 314 314 315 315 315 315
305 305 305 306 306 306 305 305 306 306 306 307 309 311 313 313 313 313 312 312 313 312 312 317 322 321 320 320 320 320 320 319 318 319 320 318 317 315 312 313 313 312 311 310 311 311 312 315 315 315 313 312 314 315 315 314 314 314 314 314 314 314 316 315 312 312 310 312 317 315 312 313 313 313 311 308 309 311 311 312 312 314 314 313 314 315 315 315
304 305 305 305 306 305 305 305 306 307 307 307 308 309 311 312 313 312 313 315 316 315 314 317 320 320 319 319 319 320 320 319 316 317 319 317 315 314 312 312 313 311 310 311 314 313 314 315 313 310 310 313 313 313 315 314 313 314 314 314 315 314 315 316 314 311 311 311 313 313 312 312 311 311 312 309 309 311 311 312 312 313 313 314 314 314 314 315
304 304 305 305 305 305 305 305 306 307 307 307 307 307 309 311 313 312 312 315 316 316 316 318 320 318 319 319 319 320 320 320 318 318 319 317 314 313 312 313 312 311 311 312 314 314 315 313 309 308 312 314 312 312 314 315 314 314 314 315 316 315 314 315 315 313 314 312 310 311 313 315 314 313 313 311 309 308 310 311 311 313 313 314 314 313 314 314
303 304 304 304 305 305 305 305 306 306 307 307 306 306 307 310 312 311 311 314 315 315 315 318 320 318 318 320 319 320 320 319 318 319 317 316 315 313 313 313 313 314 313 312 313 314 314 310 308 310 313 314 313 312 313 315 316 316 316 315 315 317 313 313 316 315 317 318 312 311 315 321 324 319 315 314 312 311 309 307 309 313 313 313 313 314 315 314
303 304 304 304 305 305 305 306 305 305 307 307 306 306 307 310 312 311 311 314 315 315 315 318 320 318 318 319 319 319 321 318 317 320 317 315 316 314 313 311 311 314 312 310 312 314 312 308 309 312 313 315 315 313 313 314 316 316 317 315 313 315 313 312 315 314 318 319 313 310 315 321 323 320 317 315 314 314 311 307 307 311 313 313 314 315 316 315
303 304 304 304 304 304 305 305 304 305 306 307 306 306 307 310 313 312 312 314 316 316 316 318 320 319 318 318 318 320 322 317 315 318 317 316 316 314 314 311 309 310 308 310 316 314 310 308 309 312 312 314 315 313 313 313 316 318 317 315 313 312 313 315 314 315 318 318 313 311 314 316 315 315 318 315 314 316 314 311 308 308 312 314 314 316 316 316
303 303 303 304 304 304 303 303 304 305 306 306 306 307 307 310 312 312 312 315 317 316 316 317 318 318 318 318 318 318 319 317 316 316 315 316 315 313 314 311 310 310 307 312 318 311 307 309 310 311 312 312 313 314 314 312 316 319 316 316 315 313 315 316 315 315 315 313 314 314 312 314 316 318 318 313 313 315 315 317 312 308 312 314 315 317 316 316
302 303 303 304 304 303 302 303 303 304 305 306 307 308 308 309 312 313 313 316 317 315 316 317 317 317 318 317 317 315 314 317 317 315 313 314 313 312 313 310 309 309 307 312 318 311 306 309 309 309 312 312 312 313 313 312 314 313 313 316 317 318 319 316 316 316 312 311 315 316 313 313 318 322 318 313 313 314 317 319 313 308 311 314 314 315 315 315
302 302 303 303 304 304 303 303 303 303 305 307 307 308 308 310 313 315 315 316 316 315 316 317 316 317 318 317 317 314 313 315 314 313 312 312 310 310 310 309 308 310 310 312 316 311 306 307 307 309 311 310 311 310 307 310 311 309 313 317 317 322 321 317 320 317 312 313 315 315 315 313 316 321 318 314 315 316 316 318 313 309 312 314 314 314 314 314
302 302 302 302 303 303 303 303 302 303 305 307 308 308 309 311 313 315 316 315 316 316 316 317 316 317 318 317 316 314 313 312 311 312 312 311 309 308 309 309 309 311 312 312 314 310 306 307 307 308 308 307 310 310 307 307 308 310 318 318 316 320 318 316 319 315 312 318 315 313 314 312 314 319 316 313 315 314 314 317 317 312 312 315 314 313 313 313
302 302 302 302 302 303 303 302 302 303 305 307 309 310 312 313 313 315 316 314 316 317 316 316 317 317 318 317 315 314 314 313 311 312 312 311 311 309 311 311 310 313 313 312 314 311 310 311 308 307 307 307 311 312 310 309 309 313 317 316 315 318 316 316 318 315 316 317 312 311 312 311 313 315 314 314 314 313 310 311 314 311 311 314 314 313 313 312
301 301 301 301 301 302 302 301 301 303 305 306 309 311 312 312 313 315 315 314 317 317 315 316 317 317 318 318 315 314 315 313 311 312 312 312 312 311 312 311 312 317 315 312 313 312 312 313 310 309 308 308 309 311 311 310 311 313 313 314 316 317 317 317 316 315 318 317 311 310 311 312 315 315 315 316 313 312 309 308 311 311 310 313 312 312 313 312
300 300 300 300 300 300 301 301 300 302 305 306 308 311 311 311 313 315 315 313 315 315 314 316 316 317 319 318 315 315 316 314 311 312 313 312 312 311 312 311 312 318 316 312 313 313 314 314 311 311 310 309 309 309 313 314 311 312 314 316 317 317 319 320 318 318 319 317 311 308 312 318 320 317 314 311 309 310 309 309 311 310 311 312 312 312 313 313
300 300 300 299 300 299 300 301 301 302 305 307 308 310 311 310 312 315 315 312 313 314 315 316 316 318 319 317 315 315 315 313 312 313 312 312 312 312 312 311 312 314 314 313 313 313 315 314 310 308 307 308 309 308 312 314 311 311 315 316 314 318 323 320 317 319 319 317 313 310 315 320 319 316 312 307 307 308 307 309 310 310 312 312 312 313 313 314
299 299 300 300 300 300 300 301 302 302 305 307 309 311 311 311 313 315 313 313 313 314 315 316 317 318 318 316 315 315 314 313 314 313 312 312 313 312 312 312 311 311 313 314 314 315 315 313 310 308 306 307 308 308 309 311 313 312 312 313 312 316 323 320 313 311 312 315 315 312 315 318 316 315 313 311 312 311 309 308 308 310 312 311 312 314 313 314
299 299 300 300 301 301 301 302 302 303 305 307 309 311 311 311 314 314 313 315 315 313 315 317 317 318 318 316 315 315 314 314 314 314 313 312 313 311 312 312 310 310 312 313 314 315 314 312 310 310 311 307 305 307 307 308 311 312 312 312 312 313 318 320 316 312 311 314 318 315 313 315 316 316 317 315 313 315 314 310 307 308 310 311 312 313 313 313
299 300 300 301 301 301 301 302 302 303 306 307 309 311 311 311 312 312 313 315 315 314 315 317 318 318 317 317 315 314 315 315 314 314 313 312 313 312 311 311 309 309 310 311 313 314 315 314 310 309 312 308 305 309 310 307 307 311 312 311 313 315 315 315 316 316 313 313 318 319 314 312 314 316 318 315 313 316 314 313 312 310 310 311 311 312 312 311
300 300 301 301 301 302 301 302 303 305 307 308 309 311 311 312 311 310 312 315 315 315 316 317 318 318 317 317 315 314 316 316 314 315 314 313 315 313 311 312 310 308 307 310 314 313 315 319 314 309 309 310 310 311 312 311 307 308 310 309 312 316 315 314 314 314 316 314 317 321 318 315 314 315 318 315 315 316 314 316 316 310 309 312 311 311 312 311
300 300 301 301 301 302 303 303 305 306 307 308 310 311 312 312 312 311 312 315 315 316 317 318 318 318 317 317 315 314 316 316 314 316 316 314 315 313 311 311 310 308 307 310 314 313 313 317 315 310 308 310 313 312 311 313 310 309 311 310 310 311 313 316 313 312 317 318 319 318 316 320 319 315 314 314 314 314 314 317 315 309 311 313 311 311 311 311
300 301 302 302 302 303 305 306 307 308 308 309 310 310 311 312 311 311 312 314 315 316 317 317 318 318 317 316 315 315 316 315 314 316 317 315 314 314 312 310 309 307 309 312 314 314 313 314 314 312 309 310 313 310 309 311 312 312 312 311 311 312 314 315 312 312 313 316 320 316 312 320 323 314 310 313 314 313 312 312 310 309 312 312 310 310 311 311
300 301 302 302 303 305 307 308 309 308 308 309 310 310 311 311 310 311 312 314 315 315 315 317 318 317 317 317 316 315 316 315 314 316 317 315 314 314 312 309 307 307 310 313 311 311 313 314 313 312 312 313 311 305 303 307 311 312 312 312 312 312 314 315 315 316 312 311 315 314 313 318 318 313 311 312 310 309 307 307 307 309 311 311 310 310 310 311
300 302 302 302 305 308 309 309 310 309 308 310 311 311 312 312 311 311 312 314 314 313 314 317 317 317 317 316 315 316 317 316 315 316 316 315 314 312 310 308 307 308 311 313 310 310 313 314 313 312 313 315 313 307 305 308 311 311 312 313 311 311 316 321 323 320 315 313 314 312 313 314 314 315 310 304 305 306 306 307 308 309 311 311 310 310 310 311
300 302 304 305 308 310 310 310 311 309 309 311 311 311 312 312 311 311 312 313 314 314 314 316 316 316 317 316 315 317 317 317 317 315 314 315 312 309 308 307 308 309 310 311 311 312 315 314 312 313 314 315 317 315 312 310 310 313 313 312 312 313 315 317 317 314 312 316 317 314 314 313 317 321 311 305 308 307 304 306 308 308 310 310 310 310 310 310
301 305 308 310 311 311 310 311 311 310 310 311 311 311 312 311 311 312 312 313 314 315 315 316 316 316 316 316 316 316 317 318 318 314 313 315 311 306 306 308 308 309 310 311 310 314 321 318 312 314 314 313 315 315 313 311 310 311 312 310 311 313 312 312 316 315 312 315 315 314 313 311 315 318 313 310 314 311 307 307 308 309 310 310 310 310 310 311
305 310 312 313 312 311 311 311 310 310 310 311 311 312 312 312 312 312 313 314 314 314 316 317 317 316 315 316 316 316 316 317 316 313 312 314 311 306 306 308 309 309 310 311 309 314 322 318 313 314 313 312 315 315 314 314 312 311 311 310 311 312 312 316 320 316 313 313 313 313 312 310 312 315 315 313 315 316 312 308 307 310 309 309 310 309 310 311
308 312 313 313 313 312 312 312 310 310 311 311 311 312 312 313 312 312 313 314 313 313 315 316 316 316 315 316 316 317 316 314 314 313 311 312 312 308 306 308 310 309 310 310 309 315 321 315 313 315 312 314 322 319 315 315 314 313 313 312 313 313 313 316 315 312 313 314 312 312 312 312 315 320 322 318 317 319 314 307 307 310 309 309 310 310 311 311
310 312 312 313 313 312 312 312 311 310 311 311 311 311 312 313 312 312 313 312 311 312 314 315 315 316 316 316 317 317 315 313 313 313 311 311 310 308 308 309 309 310 311 310 309 314 318 314 313 314 312 315 320 317 314 315 314 312 312 313 313 312 312 314 313 312 314 312 312 315 315 312 314 318 322 319 315 314 311 307 308 309 309 311 311 311 312 312
309 311 312 311 311 311 311 311 310 310 311 311 311 311 312 313 313 313 312 311 311 313 314 315 315 315 315 316 317 317 315 314 314 313 310 310 310 309 309 310 309 309 310 311 311 311 315 316 314 312 312 313 314 312 312 314 313 311 312 312 312 311 311 312 312 312 313 312 313 316 316 313 313 316 318 315 308 307 308 308 308 309 311 311 311 311 312 311
308 310 311 311 310 310 310 310 310 311 311 311 311 311 312 313 314 313 313 311 312 313 314 315 315 315 315 316 316 316 315 315 316 313 311 311 311 310 311 311 310 310 310 311 310 309 313 316 313 311 312 311 311 311 310 312 313 312 312 311 311 311 311 311 311 311 312 311 311 312 313 312 311 310 309 308 306 306 307 308 309 311 311 310 310 311 312 311
308 309 310 311 310 310 311 310 310 311 312 311 311 312 312 313 314 314 313 312 313 314 314 315 315 314 314 315 316 316 315 314 315 313 311 311 310 310 311 311 309 310 311 311 311 311 314 314 309 311 313 311 309 310 311 311 312 312 312 312 311 311 310 310 310 310 311 311 310 310 311 312 311 308 307 306 306 306 306 307 310 311 310 310 310 311 311 311
309 310 310 311 311 311 311 312 311 311 312 312 311 312 313 313 313 314 314 312 313 313 313 314 315 314 314 315 316 316 314 313 312 311 310 310 309 309 310 309 308 310 311 311 312 314 316 313 311 313 314 310 308 310 313 313 313 312 312 311 310 310 310 310 310 311 310 310 310 310 311 312 313 311 309 309 309 307 307 309 310 310 310 311 311 311 311 311
Wind_Speed
25 25 23 20 24 31 34 30 26 26 28 30 32 35 35 35 32 30 33 34 31 30 29 30 32 35 38 41 39 35 31 26 22 22 26 27 24 20 17 16 17 16 15 14 13 12 14 12 10 10 9 11 10 10 6 3 2 2 2 3 2 3 3 5 5 6 3 2 3 6 14 12 8 12 10 7 10 9 11 16 11 17 20 12 10 6 13 26
24 25 22 18 19 28 33 32 28 26 27 30 30 35 36 34 35 33 34 35 33 32 30 29 29 29 31 33 33 30 26 22 21 26 29 24 20 20 17 17 18 17 18 16 14 11 12 12 11 10 10 10 8 10 8 2 3 2 3 2 3 4 3 3 4 5 2 3 2 4 9 11 10 14 14 7 7 9 9 13 12 15 20 16 13 9 13 26
23 23 22 19 19 23 29 32 31 27 27 31 29 32 37 34 33 35 34 36 36 33 32 30 29 29 29 28 26 23 21 18 21 30 29 24 22 21 19 20 20 18 17 15 14 12 10 11 12 12 11 9 6 8 7 2 2 2 3 1 3 3 4 4 3 4 5 6 4 4 8 11 11 13 15 8 6 8 9 13 14 16 21 19 16 11 14 27
23 23 22 21 21 20 24 30 33 31 27 31 30 29 36 35 32 35 36 37 37 35 34 32 30 29 28 25 21 18 18 14 24 35 29 25 25 22 23 23 21 18 15 13 14 13 10 10 11 12 12 9 6 6 4 3 2 2 3 3 1 2 3 4 7 6 8 8 7 4 5 9 12 13 14 11 6 4 14 23 22 21 23 21 19 14 17 27
23 22 22 21 21 21 21 26 31 33 30 30 31 27 32 36 34 34 37 39 39 37 35 33 31 30 27 24 21 21 19 8 19 33 28 27 28 24 25 25 22 19 15 14 14 14 10 10 12 13 10 7 8 6 3 6 4 1 1 4 1 2 2 5 9 7 9 10 9 4 4 8 12 13 16 16 9 9 19 28 27 24 22 21 21 18 20 27
24 22 22 20 21 22 22 25 28 31 30 30 29 25 26 34 36 33 37 41 40 38 35 32 31 30 28 25 23 26 24 7 6 23 29 29 29 26 27 27 24 20 17 16 16 15 12 13 13 14 10 6 8 6 6 9 5 2 2 4 4 1 4 8 11 8 9 8 8 6 6 9 12 10 14 20 18 14 16 21 24 24 21 20 21 20 22 26
24 23 22 21 20 22 23 26 29 30 29 27 27 26 23 28 35 33 34 39 39 38 36 34 32 31 29 26 27 30 31 19 2 9 28 31 29 29 28 29 27 22 21 19 18 17 16 18 15 15 11 5 7 7 7 7 4 3 2 5 5 5 7 10 12 8 6 6 9 9 7 9 14 9 8 21 27 17 9 11 17 22 20 19 21 21 22 24
23 22 22 22 20 21 22 24 30 33 31 27 25 26 23 24 33 35 32 35 38 37 35 36 33 33 32 31 34 30 32 34 11 4 24 33 30 30 29 29 28 25 24 22 21 19 18 19 17 15 8 4 7 8 7 5 2 1 3 5 4 6 9 11 10 7 5 7 8 9 8 9 14 10 6 20 27 19 12 8 10 18 21 21 23 23 22 23
22 21 21 22 21 21 21 23 28 33 35 33 28 26 23 22 29 35 34 34 37 37 35 35 34 34 34 36 35 26 31 41 21 6 20 33 31 31 31 31 31 28 27 24 21 19 18 20 19 14 7 7 10 9 9 6 1 2 4 6 6 6 9 10 8 6 6 6 4 8 6 5 11 7 8 19 20 18 18 11 8 16 22 23 23 24 23 24
21 20 20 21 21 21 21 21 24 29 33 36 32 28 26 25 25 29 35 36 36 39 37 34 35 35 36 39 31 19 30 41 26 10 19 32 32 32 32 32 32 30 27 25 22 20 19 19 20 14 6 9 10 9 11 6 4 5 1 5 8 7 10 9 7 6 5 4 3 8 3 2 6 5 7 13 13 16 20 16 12 15 22 24 24 24 24 24
20 20 20 20 20 22 22 21 23 25 29 33 32 30 30 30 27 24 31 36 37 40 41 38 36 37 38 40 30 18 26 37 30 14 17 32 34 33 33 31 31 30 27 25 23 22 20 17 18 13 4 7 10 8 9 7 6 4 2 3 5 6 9 8 4 3 2 2 3 5 2 0 3 4 9 10 7 12 19 20 17 17 21 24 24 25 25 25
20 19 19 19 19 22 23 21 23 24 26 30 31 30 29 31 31 27 26 33 40 40 43 43 37 37 38 38 35 27 24 32 32 17 18 33 35 33 31 28 28 26 25 24 23 21 19 15 16 13 5 8 9 4 6 9 7 3 3 3 5 5 5 7 4 1 1 1 2 4 1 3 1 8 14 11 10 11 16 20 19 19 22 24 25 26 26 26
19 19 18 19 18 20 22 21 23 24 26 29 30 29 28 29 31 31 26 29 41 42 45 46 38 38 36 31 37 36 26 27 31 19 18 32 35 31 29 26 24 22 21 21 21 20 17 14 14 14 9 9 7 4 6 8 6 2 3 2 3 4 3 6 4 1 2 1 3 5 2 5 6 15 14 8 11 13 15 20 20 20 22 24 26 27 27 27
19 19 18 19 19 19 21 20 22 24 27 29 30 27 27 28 28 33 29 26 39 46 47 45 37 39 35 25 33 40 28 23 30 23 21 31 35 32 30 27 23 20 19 17 17 18 17 14 13 13 9 7 8 8 6 4 3 1 1 1 1 0 4 5 4 2 2 2 3 4 3 5 7 13 10 7 10 13 17 20 21 22 23 25 27 28 28 28
19 19 18 19 19 19 20 20 20 23 26 28 30 27 26 29 28 34 33 26 35 45 47 43 38 35 25 18 27 36 30 24 30 26 23 31 35 35 32 29 25 22 20 16 15 17 18 16 14 12 8 7 10 8 4 3 3 2 1 1 2 2 4 7 4 3 3 1 2 5 3 5 8 8 8 12 13 14 19 21 22 24 24 26 28 29 29 29
19 19 19 18 19 20 20 21 19 21 25 26 28 27 26 30 30 34 35 29 34 47 49 41 42 35 14 11 22 29 29 28 31 28 24 28 32 36 33 28 26 23 20 17 15 17 19 17 14 13 11 8 7 6 4 3 3 3 2 1 1 2 2 5 5 4 5 1 1 3 2 4 5 4 4 10 15 17 19 20 22 25 25 27 28 29 30 30
19 19 19 18 19 19 21 22 21 21 24 24 23 24 24 27 29 32 36 32 31 47 56 44 49 42 15 10 20 27 32 30 32 32 27 25 26 32 34 31 28 25 21 16 14 16 18 16 12 9 8 5 4 5 4 2 1 1 1 1 3 4 4 3 4 3 4 2 2 3 2 6 7 6 3 3 7 14 19 21 22 23 25 27 28 29 30 31
19 19 18 18 18 19 20 22 22 21 23 22 21 22 22 22 23 26 34 34 28 39 51 44 45 31 12 16 23 28 36 32 30 32 31 27 23 26 31 32 30 26 21 15 13 17 17 12 9 4 4 4 4 5 4 4 6 5 5 4 3 3 4 5 4 2 3 1 3 3 3 7 11 14 13 8 5 10 18 21 20 22 25 26 28 30 30 31
18 19 18 18 18 18 20 22 23 22 22 21 19 18 18 17 17 21 28 31 25 23 20 31 43 20 8 27 31 29 36 33 29 31 33 32 27 25 28 30 29 27 21 12 10 16 14 7 5 5 5 6 6 7 7 7 10 10 9 6 4 4 4 4 4 3 3 1 4 5 5 7 11 16 14 9 7 9 14 17 19 22 25 26 29 31 31 31
18 19 18 18 18 18 19 21 22 22 22 21 18 15 13 12 8 10 19 26 32 31 16 29 60 34 15 31 34 31 33 31 31 35 35 35 34 30 29 30 25 20 14 9 7 12 12 6 5 7 7 9 9 8 6 7 9 8 6 5 5 5 4 4 3 4 1 2 5 5 6 8 11 13 10 5 6 9 13 16 21 25 27 29 29 31 32 32
18 19 18 18 18 17 18 19 20 21 22 20 19 16 13 14 10 6 14 22 40 51 34 29 61 44 20 31 38 35 32 26 29 37 35 34 37 29 24 26 18 9 9 11 9 7 10 8 6 6 7 9 8 6 7 7 7 7 6 5 4 5 4 5 4 4 1 2 4 2 3 9 10 14 14 7 5 10 16 17 20 25 27 29 30 31 33 32
18 19 19 18 18 17 17 17 17 18 20 20 21 22 19 20 19 14 12 12 28 46 42 33 45 36 22 28 39 39 31 20 19 31 34 35 36 24 19 20 13 6 7 11 10 5 6 7 5 7 7 8 6 6 8 7 7 6 5 5 4 4 3 5 2 3 2 2 4 3 2 8 10 14 16 11 11 16 21 20 21 24 24 27 29 32 34 33
18 18 19 18 17 17 17 16 16 15 19 23 24 28 28 25 22 18 11 6 13 25 33 37 35 29 28 28 35 40 31 21 19 27 36 37 33 26 21 16 9 8 8 9 10 8 6 6 8 9 10 10 6 6 8 6 5 4 5 5 4 3 2 4 2 2 1 1 1 1 2 7 7 10 12 13 17 21 23 23 23 24 24 26 27 29 32 32
18 18 18 19 17 17 17 16 15 16 20 25 28 32 31 27 23 19 12 5 8 12 20 36 37 30 36 37 39 41 33 27 29 33 40 39 32 26 22 16 11 10 9 11 11 9 4 6 13 11 8 11 7 6 8 5 3 3 5 6 3 2 3 4 1 2 2 3 0 1 4 6 5 8 10 8 10 16 21 21 22 26 27 28 27 27 28 29
19 19 18 18 18 17 16 15 19 21 20 25 33 34 29 26 23 20 13 6 5 8 13 26 34 29 35 39 39 39 31 24 28 38 41 39 34 25 18 17 13 10 12 12 10 6 3 8 16 11 6 11 9 6 8 7 5 3 4 6 6 6 4 1 2 4 4 4 3 1 3 5 4 7 9 5 3 8 13 13 20 27 28 28 29 30 29 28
21 20 19 19 18 16 13 16 23 24 21 27 35 32 28 26 20 17 12 4 5 6 5 16 23 26 31 33 38 36 23 13 22 40 40 34 34 27 17 12 5 7 12 10 6 3 2 6 12 10 8 10 9 7 8 8 7 4 5 8 7 7 5 2 2 3 1 3 3 1 3 6 5 5 7 5 4 8 9 8 16 24 25 28 30 32 33 31
22 21 20 18 18 17 16 20 24 22 22 30 33 31 28 24 20 20 13 5 7 6 10 13 14 25 30 32 43 30 10 14 21 35 40 33 30 24 17 10 4 6 9 7 4 2 4 8 8 9 9 7 8 7 6 8 8 3 5 10 8 7 7 5 4 3 3 2 3 1 3 3 5 6 5 3 4 8 9 8 12 19 24 27 30 33 35 34
24 22 20 19 19 20 21 22 22 23 28 30 29 31 31 26 24 23 11 6 5 7 9 10 11 26 31 34 43 21 13 29 20 23 40 34 26 20 12 9 9 11 8 8 7 1 5 10 9 11 9 6 7 6 7 10 6 5 5 8 7 6 5 4 5 4 2 2 4 3 3 2 6 6 3 1 4 8 9 9 10 17 24 28 29 32 34 35
26 24 22 20 18 20 22 21 23 28 29 26 25 28 28 29 23 13 5 5 4 4 6 14 14 24 29 27 25 13 20 28 12 19 37 27 19 14 7 9 14 12 5 4 6 2 2 10 16 14 8 7 6 5 9 10 4 4 5 7 4 4 4 3 4 3 1 1 6 5 4 4 5 5 2 1 4 6 7 8 9 15 22 25 27 30 31 32
26 24 24 22 20 22 21 22 29 32 26 23 26 27 27 28 16 5 7 4 3 1 6 15 13 20 29 18 6 5 11 13 15 26 26 15 15 13 11 15 15 10 3 5 4 2 1 8 15 10 6 8 7 4 6 9 8 7 7 6 6 5 4 3 2 3 2 4 6 4 6 4 4 5 5 4 5 6 7 7 8 13 18 20 23 25 24 24
24 24 24 24 26 24 21 27 35 33 28 25 25 28 27 18 7 6 8 2 3 3 7 12 11 18 27 18 5 6 5 6 19 26 16 7 10 13 15 14 9 6 3 3 2 2 5 6 7 3 7 11 9 4 2 4 8 8 5 4 4 1 3 3 2 2 2 6 5 3 2 4 5 6 4 5 5 5 7 7 7 11 17 21 21 20 16 14
25 25 24 27 29 26 28 35 34 28 30 29 26 31 23 8 7 7 3 5 2 5 7 11 13 15 21 17 10 9 7 7 15 19 16 11 7 11 13 10 9 7 5 8 5 2 3 1 2 0 6 11 10 5 2 2 4 5 4 5 4 1 1 1 2 1 4 5 3 2 1 3 7 6 6 8 8 7 9 12 13 15 20 23 22 20 17 15
26 25 26 30 31 31 38 38 31 26 28 32 32 30 14 6 10 8 3 3 2 4 7 12 17 20 21 16 10 8 6 7 14 15 16 14 9 10 7 5 9 7 5 9 6 4 1 5 3 2 3 8 11 9 4 2 5 7 6 6 6 4 4 6 4 1 4 4 2 2 1 3 5 4 9 11 11 14 16 18 20 21 23 26 26 24 22 22
26 26 29 32 33 38 42 37 32 29 28 34 30 18 10 9 8 9 9 4 1 6 9 12 18 23 22 16 13 12 6 4 15 15 12 11 10 9 5 6 9 5 6 8 4 7 7 2 5 6 3 9 11 8 7 7 6 6 5 5 5 5 6 7 5 3 4 3 2 2 2 4 3 3 8 11 14 17 17 17 19 21 24 27 28 27 25 26
26 28 31 33 37 43 43 37 35 33 33 34 20 6 10 11 6 9 10 4 3 6 9 12 18 19 15 12 12 10 4 4 15 15 11 12 12 12 11 12 14 7 8 9 3 5 9 3 3 1 2 10 10 6 8 10 5 3 3 5 4 5 4 3 3 4 3 2 3 2 3 4 4 6 9 8 10 14 17 19 20 23 26 25 26 26 23 23
28 31 34 36 43 47 43 39 36 37 40 31 11 6 12 10 6 6 7 7 6 8 11 12 14 14 9 7 9 5 5 5 15 11 10 12 11 14 14 11 12 10 9 10 4 3 7 2 3 3 3 5 8 8 8 7 6 2 3 6 4 2 6 4 1 1 4 3 4 2 5 5 3 8 10 5 5 9 12 15 17 22 23 20 22 24 22 20
31 34 36 42 50 48 43 41 38 43 44 24 7 9 12 9 6 5 8 13 13 13 13 10 9 10 7 5 7 8 6 7 13 9 8 10 8 13 13 9 13 15 12 9 3 2 6 2 3 2 3 0 3 8 6 3 6 5 5 8 3 3 3 3 1 2 2 4 4 1 5 5 2 6 6 3 7 11 11 8 8 13 15 17 21 21 19 17
34 36 39 50 54 49 45 42 42 49 40 15 8 13 12 12 8 6 10 15 18 15 12 9 7 6 9 9 8 11 12 10 10 9 8 7 6 13 16 12 14 18 15 10 4 2 5 4 3 1 4 1 1 6 5 1 2 4 6 7 5 3 3 2 3 3 3 4 4 4 4 4 6 6 3 2 8 11 11 8 6 9 13 15 16 14 12 12
36 31 38 55 56 49 47 44 48 50 28 8 13 14 10 11 9 11 16 15 18 16 11 9 8 4 9 15 14 15 16 14 13 11 10 10 7 12 20 13 10 18 17 10 6 3 4 5 1 2 1 2 2 2 7 5 2 4 3 5 2 2 4 4 3 4 4 4 4 3 4 4 6 7 5 7 9 8 9 8 6 10 12 10 10 9 9 11
34 21 33 58 53 44 47 48 49 39 15 8 15 12 8 8 8 18 28 20 14 15 12 10 9 8 10 13 15 15 13 15 18 13 11 13 6 7 19 15 9 15 14 7 5 4 3 3 3 0 1 2 2 3 7 9 5 3 4 5 3 1 2 2 1 2 4 4 3 1 4 6 5 5 9 11 11 9 10 10 8 10 9 6 7 8 10 10
31 12 32 57 44 39 51 47 30 16 8 12 15 12 13 10 7 17 30 28 17 12 13 13 13 12 12 13 13 11 11 12 15 12 7 11 8 4 15 18 13 15 13 7 6 5 2 3 6 3 1 3 2 3 2 5 7 7 5 5 6 4 4 3 4 2 3 3 4 3 4 8 5 5 9 11 10 11 12 10 8 9 7 4 5 8 9 9
24 12 39 54 36 44 53 28 10 10 11 13 14 14 14 12 10 16 22 26 17 6 6 12 15 13 11 14 15 14 14 12 15 14 7 12 12 5 12 21 22 20 13 7 5 4 3 5 5 3 3 4 3 2 2 2 2 4 3 4 6 5 5 7 6 3 1 1 2 3 3 8 5 4 6 7 7 7 8 7 5 7 7 4 5 7 7 7
21 26 49 49 37 59 48 12 9 16 11 13 19 18 15 12 13 16 18 21 13 3 5 9 12 11 9 11 14 14 13 12 15 14 5 7 9 4 15 29 29 20 11 6 6 5 4 5 5 2 1 3 4 3 2 2 3 2 4 3 6 5 4 5 5 4 3 3 3 3 3 7 5 3 4 8 9 9 9 7 6 8 7 4 6 7 6 7
30 37 46 41 49 66 37 5 12 16 10 19 21 19 17 13 15 19 18 17 12 7 8 9 11 12 9 11 15 16 15 10 11 9 2 3 3 5 22 37 33 18 8 7 10 7 4 3 4 5 3 2 3 4 2 1 3 4 3 1 3 3 6 5 2 3 1 6 7 4 6 8 5 4 5 7 9 10 11 8 7 8 7 5 6 7 6 7
29 30 33 44 68 69 33 14 20 14 14 23 20 19 18 10 16 27 22 16 14 12 10 11 15 14 11 14 15 16 14 7 7 8 3 3 2 2 20 36 31 17 7 11 16 10 4 4 5 7 7 8 6 4 5 5 3 1 2 3 2 5 8 5 3 3 4 5 7 7 9 5 3 4 5 5 6 7 8 7 6 8 8 8 7 6 6 6
18 14 17 32 56 54 33 30 30 17 16 22 16 18 20 11 14 28 29 21 18 17 10 8 12 10 10 16 14 13 12 3 6 9 4 5 3 1 18 33 27 17 14 20 25 13 4 3 6 8 11 11 7 4 4 8 7 2 3 5 5 5 7 6 5 4 6 3 4 13 14 5 4 4 5 7 6 6 6 6 4 6 8 8 6 4 5 6
19 12 10 15 22 23 20 24 24 19 21 23 14 14 21 18 12 19 25 18 15 16 7 5 12 11 12 19 15 14 13 3 7 12 6 6 3 2 17 26 21 21 21 23 26 14 4 4 9 10 12 8 5 6 8 11 12 11 10 11 11 11 11 10 10 14 8 7 8 15 12 9 7 6 7 8 6 6 6 6 5 4 4 4 3 4 4 6
16 9 21 28 15 5 13 20 19 21 27 25 15 14 23 25 18 17 16 8 10 16 9 7 17 18 19 23 16 15 15 7 9 13 8 8 7 6 12 12 13 25 23 16 20 13 3 7 9 8 8 5 4 8 10 10 11 14 16 16 16 15 15 17 21 17 10 9 13 7 9 11 10 6 8 9 7 6 5 5 5 5 4 5 5 6 7 9
8 3 19 31 18 6 14 24 24 23 27 24 15 16 25 28 25 19 11 5 9 14 12 13 19 20 21 21 15 14 16 13 14 16 13 15 16 12 11 7 10 23 20 11 12 9 4 7 7 8 8 3 2 5 7 8 8 10 15 16 16 17 18 21 25 16 10 14 13 6 5 9 8 7 10 9 6 5 5 7 9 8 9 11 10 10 10 13
9 9 14 16 12 13 18 22 23 21 21 19 14 14 21 26 27 20 13 14 14 11 12 18 23 23 23 23 19 18 23 26 25 24 21 22 19 14 14 11 11 16 16 11 8 5 5 6 5 8 6 1 3 2 3 5 8 10 12 12 15 19 21 24 23 13 11 17 12 2 5 9 5 8 12 10 7 5 9 13 14 14 16 14 12 12 14 17
15 22 28 21 11 13 17 18 19 18 16 15 14 14 18 24 28 22 14 18 21 19 19 23 26 23 20 24 27 27 30 29 21 17 18 18 14 9 5 8 12 14 12 9 6 3 3 4 4 7 7 3 2 3 5 5 6 5 7 13 19 21 20 18 14 11 13 16 10 5 10 7 5 8 12 10 7 9 13 18 19 21 20 16 14 18 22 24
21 26 32 28 16 12 15 15 17 17 13 13 15 16 17 20 24 23 16 14 20 25 26 27 28 22 18 26 31 27 23 16 13 17 19 15 11 11 12 15 19 17 11 6 3 3 5 5 4 6 7 2 3 3 7 7 5 2 10 17 22 19 14 9 8 11 13 10 7 10 12 6 6 7 9 7 7 11 17 23 25 25 23 21 23 26 28 26
Wind_Direction
235 238 245 239 232 229 224 223 224 220 215 217 219 216 216 218 216 214 213 207 201 203 203 204 207 209 211 210 209 211 209 203 205 216 218 210 208 215 218 216 217 217 213 203 197 202 200 192 199 203 200 195 196 200 180 75 86 84 97 116 192 182 190 190 187 197 176 286 261 206 189 176 183 190 187 189 197 209 199 198 203 202 208 219 222 219 190 187
231 235 242 238 231 230 224 222 225 225 219 216 218 217 214 215 215 214 213 208 202 200 201 202 202 202 201 201 201 198 196 196 209 222 217 206 207 213 209 205 206 204 198 189 184 189 189 181 175 175 172 161 164 187 182 99 66 87 102 137 206 191 215 214 198 201 196 314 268 231 212 197 199 184 178 185 191 189 191 205 211 210 213 219 228 232 198 190
229 231 235 232 228 229 224 222 223 225 224 219 220 220 213 210 211 210 210 209 204 199 199 199 196 193 191 190 187 186 192 200 218 221 211 205 207 205 200 197 196 193 189 186 182 180 173 163 160 163 153 135 144 181 176 122 72 101 114 169 227 226 264 294 299 264 274 289 278 252 220 214 218 187 180 188 173 183 202 207 208 213 214 217 226 228 199 192
227 227 228 229 226 225 223 223 225 226 226 223 221 220 213 207 208 207 207 208 205 199 197 197 192 189 189 188 187 190 193 205 231 221 203 203 204 194 194 191 187 184 179 181 182 180 166 147 151 158 142 114 124 156 164 160 143 120 138 177 222 342 287 323 347 327 311 297 283 259 194 214 219 195 186 173 147 222 228 215 214 218 214 211 218 219 199 193
227 226 226 225 225 223 220 222 225 226 227 226 223 222 215 209 207 207 206 205 205 200 196 197 194 193 194 194 196 195 187 198 242 222 200 200 200 190 191 189 185 184 179 180 178 176 170 154 149 147 133 110 132 134 148 172 161 129 178 189 150 21 265 315 347 339 327 313 281 236 183 211 202 197 195 179 177 224 228 223 222 224 221 216 215 211 199 195
229 227 225 224 223 222 219 220 223 224 226 227 228 228 219 211 207 205 207 206 205 201 197 199 198 199 200 201 201 192 188 184 258 220 201 196 196 191 191 189 189 190 188 187 178 172 167 162 153 139 124 109 151 157 156 167 169 183 237 208 194 301 274 313 332 325 324 304 264 240 230 208 182 200 204 196 210 221 229 233 226 225 225 222 218 210 202 200
230 228 227 224 221 220 218 219 224 224 223 227 234 236 228 219 211 205 207 208 207 203 200 203 202 205 204 200 198 192 199 209 285 225 200 196 196 191 191 191 193 195 194 191 182 178 170 166 157 139 123 108 164 169 154 158 166 172 197 204 211 282 295 320 331 326 323 280 260 255 243 204 186 198 205 212 221 221 237 248 231 223 221 219 216 214 213 212
228 228 228 225 223 223 217 217 226 229 227 228 236 238 235 229 217 207 206 208 207 204 204 206 206 209 205 196 192 194 209 211 225 272 194 194 195 190 190 191 193 197 197 196 190 182 172 170 165 151 131 114 159 161 151 140 95 153 174 196 228 297 311 332 342 349 340 295 269 240 229 211 200 195 209 226 226 221 231 253 237 220 215 214 214 216 218 217
225 225 224 223 223 223 219 214 222 230 231 231 235 238 236 230 216 206 208 211 208 206 205 206 208 209 205 198 192 200 216 206 209 257 190 189 191 188 190 189 192 197 198 198 195 186 175 172 171 168 161 146 148 155 161 156 162 175 177 210 236 290 323 336 342 3 353 315 255 215 229 217 200 200 242 242 235 229 230 243 242 218 213 213 213 217 219 219
224 223 220 220 219 220 223 215 216 226 231 232 234 240 238 230 219 207 209 212 210 208 205 205 206 203 202 199 195 210 218 204 204 232 193 188 187 185 188 188 190 194 196 194 193 193 183 180 178 168 155 155 151 156 166 166 161 147 144 237 236 280 318 324 328 341 336 326 230 206 232 218 182 181 246 246 237 231 229 234 235 220 216 216 215 218 220 222
222 222 219 217 215 216 222 220 213 221 230 232 233 239 241 234 231 221 213 213 213 209 204 203 203 201 200 198 199 210 213 205 205 218 200 190 187 185 186 186 188 191 193 189 189 195 193 192 185 170 152 168 157 153 172 171 152 131 56 228 251 292 302 307 339 349 344 360 226 197 192 245 134 183 239 239 227 228 225 226 228 221 218 216 217 218 219 223
221 222 221 216 212 212 219 221 212 214 225 230 232 236 239 238 237 234 223 217 215 211 204 200 201 204 199 200 208 205 204 208 206 207 201 194 190 189 187 185 189 190 191 188 183 191 197 199 192 184 183 166 152 142 186 175 153 93 64 178 283 325 305 308 354 72 108 50 197 148 179 274 179 230 242 241 235 233 222 222 224 221 218 216 217 219 219 223
220 221 222 218 213 210 216 219 212 210 215 225 233 233 235 238 238 235 228 221 217 211 205 198 200 205 198 203 212 204 204 209 203 199 190 191 190 189 189 189 193 195 196 192 182 183 190 197 200 195 176 155 145 120 146 148 141 75 61 139 309 345 315 325 3 63 127 188 183 139 232 269 243 237 238 237 231 227 220 220 222 221 220 218 218 220 221 222
220 221 222 220 217 212 215 217 214 210 209 219 229 232 233 232 236 236 231 228 220 210 203 198 197 201 201 208 208 203 209 207 200 197 180 184 187 186 190 192 194 196 194 191 185 182 184 193 202 191 173 163 147 119 105 89 98 117 77 109 72 194 265 316 355 46 109 225 187 149 234 265 260 246 230 225 227 221 222 222 222 223 222 222 221 221 224 224
219 222 222 222 219 215 216 218 215 210 210 216 224 230 231 228 234 236 229 231 229 215 201 197 196 196 199 212 205 201 207 202 197 194 177 178 183 184 186 187 188 189 187 187 189 186 187 193 191 172 154 155 144 117 72 31 31 52 147 266 15 173 256 316 320 185 163 258 160 150 230 267 274 262 219 223 229 224 226 225 224 226 225 225 225 225 228 229
220 222 223 223 221 216 215 220 217 211 213 216 221 229 232 231 235 235 230 231 231 215 199 194 197 198 199 204 199 197 198 196 194 190 177 175 181 181 179 180 180 181 183 186 191 192 191 190 178 161 145 140 139 110 70 53 15 11 116 195 317 169 233 319 310 211 169 148 179 166 216 268 279 276 204 223 228 224 226 228 227 228 229 228 228 230 232 233
219 221 225 225 224 220 214 220 220 212 215 218 221 228 233 237 237 240 234 229 228 209 198 195 195 199 213 195 187 190 191 192 190 187 179 174 178 178 174 174 175 178 180 181 188 185 181 177 168 162 149 144 144 127 113 107 128 12 79 201 230 193 197 233 279 264 155 156 236 173 194 251 269 277 262 248 234 226 227 230 230 230 231 231 231 233 234 235
220 221 225 226 227 224 216 220 221 214 217 221 223 227 234 238 238 244 235 231 232 206 197 194 189 194 218 198 188 187 189 189 186 185 184 179 180 179 173 171 173 175 169 164 173 172 168 168 160 151 151 161 155 148 169 170 157 173 186 201 228 214 217 215 238 261 130 159 250 187 213 254 268 272 267 273 266 235 235 237 234 234 236 235 234 235 237 238
221 222 224 225 227 226 220 220 222 218 217 223 225 227 238 240 236 246 241 236 234 218 200 179 179 186 204 193 189 184 188 188 182 184 186 182 182 182 175 173 172 167 157 148 170 173 163 150 154 172 177 173 175 177 184 177 172 179 182 178 169 190 234 231 242 271 140 140 268 228 230 243 251 264 264 260 251 241 247 245 237 238 239 238 237 238 239 241
222 222 223 225 225 226 223 222 224 221 220 225 225 221 227 218 216 242 234 234 232 238 259 180 181 190 185 183 185 180 182 184 182 183 183 180 178 173 169 168 164 161 158 148 166 175 165 165 191 188 179 174 179 177 162 160 166 159 156 172 178 185 244 243 245 299 121 152 265 242 241 253 251 264 267 243 239 239 242 243 239 239 239 239 240 239 241 244
224 223 225 225 224 226 224 225 226 222 222 227 224 219 212 192 194 215 205 228 232 234 252 204 185 189 182 180 186 179 170 173 183 183 180 177 173 165 161 160 154 162 165 138 132 152 168 189 199 175 169 170 170 147 123 135 147 144 151 169 193 194 240 246 229 307 10 160 266 275 250 263 262 267 267 240 218 241 239 238 242 245 243 243 244 243 244 246
226 224 226 225 225 225 224 228 231 225 222 227 226 225 226 213 219 235 210 227 237 234 247 229 192 186 181 184 190 182 165 157 176 178 173 171 170 165 160 160 156 157 150 132 124 138 180 202 184 158 153 142 141 133 123 135 149 157 155 148 196 205 242 261 254 346 18 172 273 342 283 263 261 262 264 242 226 247 250 246 251 255 253 250 249 249 248 248
229 226 226 226 228 226 226 230 234 233 223 223 227 226 229 224 223 236 221 219 254 248 247 230 202 178 168 174 182 179 169 161 167 172 172 170 170 165 158 161 158 142 149 160 159 163 183 204 176 156 148 138 142 159 142 135 150 162 154 149 203 211 186 233 254 344 37 125 262 352 308 272 267 268 270 248 235 248 254 251 256 257 258 259 258 256 254 253
233 228 227 227 229 228 227 231 237 240 227 224 227 225 229 228 226 231 227 251 276 272 251 219 201 180 170 174 178 177 175 176 175 173 174 172 166 161 159 159 149 145 170 175 165 163 154 165 161 145 145 151 147 165 158 154 174 189 176 162 171 186 194 213 272 312 349 16 358 58 320 283 258 261 268 258 239 249 251 246 249 251 252 257 259 259 258 255
233 231 229 225 228 227 225 235 239 235 231 228 226 225 228 231 233 227 224 290 262 250 263 215 195 184 177 177 178 176 172 176 179 174 173 173 164 155 158 161 157 166 175 159 148 161 158 158 155 139 146 159 153 175 177 168 179 219 205 173 166 179 198 222 17 25 27 344 305 114 296 279 274 256 254 270 284 260 253 240 241 246 248 250 252 255 257 255
237 236 230 224 224 220 222 236 233 231 236 233 226 225 225 226 233 215 197 290 260 210 229 199 187 181 178 171 166 168 168 171 178 173 171 173 168 156 151 159 158 166 161 141 135 171 177 157 152 145 152 159 166 189 191 168 162 220 213 176 170 165 162 165 86 74 128 269 292 117 206 264 305 274 251 277 298 272 267 256 246 246 247 246 249 252 254 254
241 239 233 227 219 211 219 230 230 232 235 229 225 224 220 218 217 193 177 260 250 166 154 180 183 176 177 167 162 165 169 152 160 172 172 172 170 161 157 160 122 151 154 135 163 205 141 146 150 148 143 154 177 190 199 164 148 227 208 166 171 166 171 183 146 163 219 261 311 32 167 254 285 258 249 280 293 282 275 269 259 250 247 245 245 248 250 252
243 241 238 231 220 215 221 231 238 238 232 228 225 222 217 213 203 181 173 248 202 123 146 172 174 172 172 167 164 161 146 150 152 176 173 168 168 163 168 177 148 152 168 156 175 213 120 152 165 154 151 179 184 171 170 154 154 235 194 150 166 165 168 164 143 198 266 357 289 268 144 233 267 260 273 289 256 267 268 263 258 250 246 243 244 247 249 251
242 243 242 233 229 226 227 237 242 235 235 236 229 225 215 208 203 178 193 248 138 86 160 161 164 166 161 163 169 153 148 155 149 168 167 162 165 164 161 169 144 135 147 134 154 176 137 173 172 159 168 192 172 144 159 157 167 206 142 101 85 81 82 102 140 175 58 332 242 218 175 226 269 261 248 260 242 245 259 264 256 251 248 247 248 249 253 257
242 243 240 236 236 230 230 238 234 229 232 235 229 224 209 198 199 202 220 218 96 104 160 154 164 158 151 157 173 142 151 149 128 147 160 157 156 147 121 135 132 122 97 55 112 185 12 160 168 166 177 168 140 102 153 163 148 126 109 80 63 52 52 61 85 95 92 266 256 219 184 197 276 266 213 212 225 209 223 252 264 263 259 255 255 257 260 262
244 242 239 240 239 234 234 234 232 228 222 228 228 209 196 189 196 231 214 111 62 191 154 148 162 157 156 157 147 153 140 110 135 145 155 165 150 133 123 131 128 107 97 87 145 312 36 121 170 187 161 143 122 93 96 150 137 116 111 112 98 32 43 38 9 72 195 251 283 282 174 164 237 260 237 246 257 219 204 221 245 259 259 258 259 264 263 256
245 244 242 242 241 239 238 235 235 231 220 224 212 183 178 195 218 224 183 97 134 199 162 151 158 163 164 153 146 161 135 124 153 153 156 167 162 153 154 163 158 140 171 185 172 31 43 177 266 53 164 157 141 137 43 32 132 126 127 133 132 139 94 219 237 176 229 244 255 249 164 193 237 250 256 266 271 250 226 223 231 242 254 259 263 267 266 260
249 248 247 244 242 240 239 239 238 234 227 223 201 172 167 236 213 201 183 155 175 165 159 162 162 165 164 155 153 151 114 138 161 159 163 162 159 169 170 165 156 141 166 172 145 114 111 305 287 129 198 188 166 161 169 183 171 160 154 157 161 156 174 209 212 208 244 248 248 227 203 257 271 259 237 237 240 241 237 237 242 249 258 265 271 275 277 276
251 253 251 247 246 242 241 243 237 233 229 218 201 174 184 222 196 185 199 206 93 129 156 167 163 165 167 163 162 150 113 156 165 160 164 157 156 172 174 188 180 129 109 146 151 163 166 240 212 180 184 180 175 173 156 134 152 176 150 140 169 179 182 197 195 198 223 241 279 267 213 203 208 251 238 235 249 255 253 252 254 257 262 268 276 282 284 282
253 254 251 250 249 243 241 241 234 232 225 209 199 185 197 202 190 188 190 176 139 145 161 171 164 165 167 158 161 152 96 172 172 162 164 168 173 175 174 192 190 153 134 160 177 178 175 209 250 248 131 157 164 162 130 117 144 210 122 128 202 205 145 132 181 172 151 204 261 229 226 215 204 275 270 248 264 272 264 260 259 258 260 266 274 279 280 281
256 252 250 251 247 242 241 236 229 230 221 205 198 216 198 199 204 183 164 156 162 147 150 173 172 165 161 146 161 151 42 149 170 165 173 176 180 182 181 190 182 166 162 160 144 170 176 206 326 12 65 148 162 158 149 148 160 156 145 180 217 160 108 104 239 33 88 213 250 198 242 284 314 286 278 251 268 277 258 252 253 255 258 263 267 270 274 280
257 254 252 250 245 244 241 230 224 224 217 206 210 210 194 200 189 146 167 164 151 147 151 171 188 170 151 130 156 150 94 135 166 165 171 175 187 190 186 187 179 180 182 163 144 197 156 108 343 64 97 156 158 140 137 145 141 138 187 192 155 73 94 111 190 352 67 226 269 241 241 273 257 262 292 280 250 260 258 255 259 262 260 259 262 266 276 286
257 258 256 251 246 244 238 228 221 218 212 204 215 205 193 199 173 143 193 167 145 156 163 170 192 177 160 151 146 150 138 142 168 168 165 183 213 192 184 191 183 183 186 163 143 200 136 100 334 346 131 167 50 123 136 14 104 141 180 177 145 155 196 146 156 186 178 219 274 310 287 261 212 225 306 290 229 239 261 273 274 263 256 258 268 276 287 298
258 259 257 253 247 240 235 225 215 211 208 202 211 203 187 194 176 173 197 174 148 163 173 176 188 181 174 164 149 154 156 155 167 170 173 190 213 192 187 191 181 180 183 164 150 176 127 115 255 307 129 138 36 153 184 193 42 52 122 165 152 136 176 169 159 168 166 198 246 309 318 271 220 203 198 230 237 233 253 271 261 250 254 272 294 301 308 318
255 251 257 252 245 238 226 212 205 206 204 202 204 194 170 182 179 180 190 186 159 166 178 183 183 173 172 163 151 157 160 158 168 177 185 185 184 197 193 187 166 169 167 135 132 158 116 116 152 317 344 163 175 219 192 173 157 114 137 173 181 95 128 154 146 134 137 172 202 256 287 265 246 196 186 212 238 237 242 254 244 241 259 296 313 316 324 329
249 245 257 250 243 227 208 197 198 200 194 203 199 190 177 169 165 179 190 193 182 175 181 178 180 175 164 159 156 157 154 155 173 184 192 183 174 204 199 184 158 155 151 123 143 165 128 125 139 138 174 177 230 292 201 170 171 165 164 180 177 144 118 154 213 211 116 158 176 165 261 267 251 199 191 201 217 226 237 247 232 225 243 272 302 316 328 334
244 237 248 246 234 206 195 186 186 184 192 198 187 187 175 149 163 182 191 198 194 182 175 177 182 177 165 165 163 159 156 158 181 189 197 195 188 195 187 168 152 155 157 131 145 155 96 104 113 130 190 203 267 295 185 189 137 139 186 192 167 163 152 166 207 214 108 205 164 124 270 275 260 214 207 218 228 238 251 258 234 218 220 239 302 316 324 333
238 242 246 248 220 193 186 176 179 180 189 182 172 181 175 155 173 181 186 195 194 170 168 175 176 175 174 167 159 160 159 162 183 188 181 187 188 174 161 154 149 157 158 130 150 157 121 105 97 89 313 309 323 347 39 43 76 150 243 205 163 189 169 151 182 169 158 210 157 94 270 262 273 286 264 266 273 274 268 262 255 242 226 239 305 320 326 326
243 245 244 239 207 189 182 168 176 172 173 175 175 179 171 168 179 178 186 193 185 169 169 169 171 177 177 161 161 171 168 164 186 189 141 141 179 166 157 154 154 162 166 160 170 169 143 127 119 120 97 7 344 334 300 236 175 185 219 161 156 140 106 106 132 113 197 215 160 154 242 245 271 321 317 288 279 277 269 263 271 268 255 272 304 315 318 323
251 242 222 203 189 183 180 175 167 162 170 173 179 178 165 169 186 182 183 187 186 180 170 173 174 167 163 161 166 178 173 158 174 177 139 108 111 163 157 157 161 164 145 145 154 149 135 152 147 140 158 181 190 210 209 187 174 160 96 99 107 112 129 150 118 110 239 221 156 191 238 255 305 316 319 296 272 277 277 269 272 272 272 284 295 303 311 323
239 217 199 184 179 177 179 175 165 161 170 169 175 178 169 167 184 186 184 184 190 184 164 165 160 140 154 163 160 175 182 164 142 153 134 135 144 234 163 161 163 158 140 142 148 141 103 157 175 170 182 189 178 171 141 118 120 126 98 110 119 141 163 142 109 200 221 146 171 231 235 242 282 271 272 269 255 259 274 277 276 271 273 280 292 320 335 332
229 197 182 170 172 174 173 173 169 164 164 166 169 174 176 172 169 189 194 189 184 174 143 134 154 146 164 165 160 174 176 111 122 148 144 138 95 47 159 161 160 154 148 148 153 143 84 185 189 184 190 187 153 165 154 136 150 163 154 157 169 181 180 168 198 220 190 142 222 235 216 214 244 253 251 253 250 251 260 268 265 252 267 294 328 348 343 331
229 195 176 167 160 164 164 166 169 162 160 164 163 161 176 178 172 184 197 195 178 169 144 149 171 171 170 167 167 171 163 137 150 161 155 146 133 119 153 167 170 159 151 154 166 154 119 198 190 174 183 173 135 172 167 153 161 167 172 180 182 185 186 195 214 212 161 179 231 208 166 204 226 236 246 243 233 224 222 237 243 252 289 309 309 306 303 307
200 176 172 165 154 134 151 155 157 161 163 163 160 164 175 180 178 176 171 161 183 179 160 159 173 175 171 171 171 169 169 170 171 173 170 160 154 149 152 173 189 171 158 160 178 167 157 191 176 156 169 153 99 175 169 145 141 165 186 186 181 189 196 207 219 210 180 219 229 137 141 235 224 216 245 258 255 236 233 250 256 269 284 282 283 292 297 297
186 165 152 148 142 137 145 154 157 160 164 161 161 171 175 177 176 171 164 168 173 176 169 165 168 172 173 174 176 183 191 189 184 181 173 162 161 164 167 170 175 173 167 164 175 186 186 183 144 131 152 126 33 85 126 134 143 166 193 195 192 200 205 214 221 208 207 234 233 114 302 274 233 220 242 258 273 262 256 260 261 265 269 272 280 289 292 293
187 167 152 140 136 147 152 158 159 158 165 169 167 170 175 178 173 165 170 182 175 170 173 171 168 170 173 178 187 197 198 194 185 168 156 153 154 149 150 159 154 157 164 163 157 150 160 158 118 124 158 222 346 78 99 90 99 135 203 211 207 208 210 219 220 201 212 228 223 250 272 253 198 223 234 243 255 255 259 262 261 260 261 267 278 284 289 292
169 163 155 145 139 151 155 154 161 162 165 169 165 164 172 177 172 163 166 189 189 184 181 174 167 166 174 187 197 199 184 161 126 127 136 136 126 106 105 135 150 151 148 141 125 113 123 127 121 141 165 235 330 122 124 93 87 211 234 215 207 212 215 222 232 218 216 211 196 228 242 206 167 201 208 216 236 241 250 252 253 258 262 267 274 280 284 284